Regional Weather Roundup
Issued by NWS Cleveland, OH

Home | Current Version | Previous Version | Text Only | Print | Product List | Glossary Off
Versions: 1 2 3 4 5 6 7 8 9 10 11 12 13 14 15 16 17 18 19 20 21 22 23 24 25 26 27 28 29 30 31 32 33 34 35 36 37 38 39 40 41 42 43 44 45 46 47 48 49 50

000
ASUS41 KCLE 231410
RWRCLE
OHIO REGIONAL WEATHER ROUNDUP
NATIONAL WEATHER SERVICE CLEVELAND, OH
900 AM EST SUN NOV 23 2014

NOTE: "FAIR" INDICATES FEW OR NO CLOUDS BELOW 12,000 FEET WITH NO
SIGNIFICANT WEATHER AND/OR OBSTRUCTIONS TO VISIBILITY.

OHZ001>008-015>018-024>027-034-035-043-044-231500-
   NORTHWEST OHIO

CITY           SKY/WX    TMP DP  RH WIND       PRES   REMARKS
DEFIANCE       CLOUDY    47  41  80 S7        29.93S
FINDLAY        CLOUDY    47  41  80 S12       29.96R
TOLEDO EXPRESS LGT RAIN  45  42  89 S6        29.94S
TOLEDO EXEC    CLOUDY    46  42  86 S9        29.96S
LIMA           CLOUDY    49  41  74 S10       29.95S
$$

OHZ009>014-019>023-028>033-038-089-231500-
   NORTHEAST OHIO

CITY           SKY/WX    TMP DP  RH WIND       PRES   REMARKS
CLE-HOPKINS    CLOUDY    45  41  86 S9        30.03S
CLE-LAKEFRONT  CLOUDY    46  40  79 SE15      29.99F
CUY CO. ARPT   CLOUDY    46  43  87 S12G21    30.02S
LORAIN-ELYRIA  CLOUDY    45  40  82 S10       30.00S
ASHTABULA      LGT RAIN  42  39  89 S9        30.05S FOG
AKRON-CANTON   LGT RAIN  44  38  79 SE6       30.05R
WOOSTER        CLOUDY   N/A N/A N/A S6        30.04R
MANSFIELD      CLOUDY    44  39  82 S10       30.02R
YOUNGSTOWN     CLOUDY    43  39  86 SE6       30.06R
$$

OHZ042-051>053-060>062-070>072-077>081-231500-
  SOUTHWEST OHIO

CITY           SKY/WX    TMP DP  RH WIND       PRES   REMARKS
CINC-COVINGTON CLOUDY    51  39  63 SE8       29.97F
CINC-LUNKEN    PTSUNNY   48  42  80 CALM      29.99F
HAMILTON       CLOUDY    52  41  66 SE3       29.98F
DAYTON         PTSUNNY   52  40  63 S9        29.97F
WRIGHT-PAT AFB MOSUNNY   51  40  66 S6        29.97F
DAYTON GENERAL MOSUNNY   51  41  68 S13       29.96F
WILMINGTON     CLOUDY    51  38  60 S12       29.98F
$$

OHZ036-037-039>041-045>050-054>059-063>069-073>076-082>088-231500-
  CENTRAL AND SOUTHEAST OHIO

CITY           SKY/WX    TMP DP  RH WIND       PRES   REMARKS
COLUMBUS       PTSUNNY   48  35  60 SE6       30.02R
OSU AIRPORT    CLOUDY    48  34  58 SE9       30.01R
BOLTON FIELD   CLOUDY    46  36  66 SE7       30.01S
RICKENBACK AFB CLOUDY    47  36  66 SE5       30.01F
NEWARK         CLOUDY    47  35  63 CALM      30.03S
MARION         LGT RAIN  47  39  74 S9        30.01R
LANCASTER      CLOUDY    50  32  50 SE8       30.03F
ZANESVILLE     CLOUDY    49  28  44 S9        30.06R
NEW PHILLY     CLOUDY    49  32  52 SE5       30.07R
$$


USA.gov is the U.S. government's official web portal to all federal, state and local government web resources and services.